#timestamp,LO_Frequency,Hit 
1504731615.0,286047006.6,N
1504731615.9,286047006.6,N
1504731635.8,286047003.5,N
1504731655.6,286047002.7,N
1504731675.4,286047002.6,N
1504731695.3,286047004.0,N
1504731715.1,286047003.6,N
1504731716.0,286047003.6,N
1504731735.8,286046998.8,N
1504731755.7,286047000.3,N
1504731775.5,286046995.1,N
1504731795.3,286046995.9,N
1504731815.1,286046995.5,N
1504731835.9,286046996.8,N
1504731855.7,286046996.0,N
1504731875.5,286046995.0,N
1504731895.4,286047000.7,N
1504731915.2,286047001.2,N
1504731935.0,286046999.8,N
1504731935.9,286046999.8,N
1504731955.8,286047002.1,N
1504731975.6,286046996.5,N
1504731995.4,286046995.6,N
1504732015.3,286047000.9,N
1504732035.1,286047002.4,N
1504732036.0,286047002.4,N
1504732055.8,286047001.9,N
1504732075.7,286047001.8,N
1504732095.5,286047004.3,N
1504732115.3,286047002.8,N
1504732135.2,286047000.5,N
1504732155.9,286047002.2,N
1504732175.7,286047002.5,N
1504732195.5,286047000.0,N
1504732215.4,286046998.4,N
1504732235.2,286046998.1,N
1504732255.0,286047001.1,N
1504732255.9,286047001.1,N
1504732275.8,286046998.6,N
1504732295.6,286047001.5,N
1504732315.4,286047006.0,N
1504732335.3,286047004.0,N
1504732355.1,286047000.2,N
1504732375.8,286047002.3,N
1504732395.7,286047002.5,N
1504732415.5,286046997.7,N
1504732435.3,286046998.0,N
1504732455.2,286046998.1,N
1504732475.9,286046999.7,N
1504732495.7,286047003.8,N
1504732515.5,286046999.9,N
1504732535.4,286046998.4,N
1504732555.2,286046999.9,N
1504732575.0,286047003.8,N
1504732575.9,286047003.8,N
1504732595.8,286047003.3,N
1504732615.6,286047006.0,N
1504732635.4,286047000.7,N
1504732655.3,286046996.2,N
1504732675.1,286046993.5,N
1504732695.8,286046995.2,N
1504732715.7,286046998.3,N
1504732735.5,286047002.4,N
1504732755.3,286047005.5,N
1504732775.2,286047003.4,N
1504732795.9,286047001.1,N
1504732815.7,286046999.9,N
1504732835.6,286047006.3,N
1504732855.4,286047018.0,P
1504732875.2,286047035.4,P
1504732895.1,286047042.3,P
1504732896.0,286047042.3,N
1504732915.8,286047043.5,N
1504732935.6,286047044.4,N
1504732955.5,286047040.6,N
1504732975.3,286047038.8,N
1504732995.1,286047040.0,N
1504733015.9,286047028.5,N
1504733035.7,286047025.8,N
1504733055.5,286047022.9,N
1504733075.3,286047014.3,N
1504733095.2,286047014.2,N
1504733115.9,286047020.4,N
1504733135.7,286047021.6,N
1504733155.6,286047016.2,N
1504733175.4,286047014.3,N
1504733195.2,286047015.2,N
1504733215.1,286047015.6,N
1504733216.0,286047015.6,N
1504733235.8,286047013.0,N
1504733255.6,286047015.0,N
1504733275.5,286047010.2,N
1504733295.3,286047009.5,N
1504733315.1,286047014.9,N
1504733335.8,286047016.9,N
1504733355.7,286047017.6,N
1504733375.5,286047023.1,N
1504733395.3,286047024.1,N
1504733415.2,286047024.6,N
1504733435.9,286047022.7,N
1504733455.7,286047017.7,N
1504733475.6,286047021.6,N
1504733495.4,286047020.5,N
1504733515.2,286047028.4,P
1504733535.1,286047010.4,N
1504733536.0,286047010.4,N
1504733555.8,286047009.5,N
1504733575.6,286047008.6,N
1504733595.5,286046999.7,N
1504733615.3,286046994.5,N
1504733635.1,286046990.4,N
1504733655.9,286046995.1,N
1504733675.7,286046999.2,N
1504733695.5,286047001.2,N
1504733715.3,286047002.1,N
1504733735.2,286047002.8,N
1504733755.0,286046997.0,N
1504733755.9,286046997.0,N
1504733775.7,286046999.6,N
1504733795.6,286046999.7,N
1504733815.4,286047001.5,N
1504733835.2,286046999.9,N
1504733855.1,286046997.0,N
1504733856.0,286046997.0,N
1504733875.8,286046995.8,N
1504733895.6,286046999.4,N
1504733915.5,286046998.4,N
1504733935.3,286047000.4,N
1504733955.1,286047002.5,N
1504733975.9,286047001.7,N
1504733995.7,286047003.7,N
1504734015.5,286047007.5,N
1504734035.3,286047007.1,N
1504734055.2,286047001.7,N
1504734075.0,286047000.3,N
1504734075.9,286047000.3,N
1504734095.7,286047000.3,N
1504734115.6,286047000.3,N
1504734135.4,286047002.4,N
1504734155.2,286047002.3,N
1504734175.1,286047001.9,N
1504734176.0,286047001.9,N
1504734195.8,286047004.8,N
1504734215.6,286047004.9,N
1504734235.5,286047003.6,N
1504734255.3,286047005.5,N
1504734275.1,286047007.0,N
1504734295.9,286047006.2,N
1504734315.7,286047005.7,N
1504734335.5,286047005.8,N
1504734355.4,286047003.7,N
1504734375.2,286047001.7,N
1504734395.0,286047004.7,N
1504734395.9,286047004.7,N
1504734415.8,286047006.5,N
1504734435.6,286047005.1,N
1504734455.4,286047005.3,N
1504734475.3,286047006.3,N
1504734495.1,286047006.6,N
1504734496.0,286047006.6,N
1504734515.8,286047005.4,N
1504734535.7,286047006.8,N
1504734555.5,286047005.3,N
1504734575.3,286047007.2,P
1504734595.2,286047005.0,P
1504734615.9,286047004.7,P
1504734635.7,286047003.9,P
1504734655.6,286046997.5,P
1504734675.4,286046999.6,N
1504734695.2,286046995.8,N
1504734715.1,286046992.5,N
1504734716.0,286046992.5,N
1504734735.8,286046989.6,N
1504734755.6,286046987.9,N
1504734775.5,286046990.9,N
1504734795.3,286046987.5,N
1504734815.1,286046989.3,N
1504734835.8,286046989.8,N
1504734855.7,286046985.8,N
1504734875.5,286046983.4,N
1504734895.3,286046986.5,N
1504734915.2,286046985.8,N
1504734935.9,286046985.9,N
1504734955.7,286046982.2,N
1504734975.6,286046983.2,N
1504734995.4,286046981.2,N
1504735015.2,286046981.3,N
1504735035.1,286046984.3,N
1504735036.0,286046984.3,N
1504735055.8,286046989.6,N
1504735075.6,286046991.3,N
1504735095.5,286046992.7,N
1504735115.3,286046992.7,N
1504735135.1,286046992.6,N
1504735155.8,286046987.4,N
1504735175.7,286046983.4,N
1504735195.5,286046983.5,P
